Weather History for KGFK - March, 2013

Change the Weather History Date:

Saturday, March 23, 2013

  Actual Average Record
Temperature  
Mean Temperature 16 °F 29 °F  
Max Temperature 26 °F 38 °F 67 °F (1945)
Min Temperature 5 °F 20 °F -21 °F (1974)
Degree Days  
Heating Degree Days 49 36  
Month to date heating degree days 1216 968  
Since 1 July heating degree days 8217 8118  
Cooling Degree Days 0 0  
Month to date cooling degree days 0 0  
Year to date cooling degree days 0 0  
Moisture  
Dew Point 11 °F    
Average Humidity 78    
Maximum Humidity 88    
Minimum Humidity 67    
Precipitation  
Precipitation 0.00 in 0.03 in 0.55 in (2012)
Month to date precipitation 0.97 0.71  
Year to date precipitation 1.76 1.78  
Snow  
Snow 0.00 in 0.20 in - ()
Month to date snowfall 13.3 6.0  
Since 1 July snowfall 43.2 43.2  
Snow Depth 12.00 in    
Sea Level Pressure  
Sea Level Pressure 30.21 in    
Wind  
Wind Speed 6 mph (NW)    
Max Wind Speed 10 mph    
Max Gust Speed 12 mph    
Visibility 10 miles    
Events      
T = Trace of Precipitation, MM = Missing Value Source: NWS Daily Summary

Daily Weather History Graph

Daily Weather History Graph

Search for Another Location

Airport or City:

Trip Planner

Search our weather history database for the weather conditions in past years. The results will help you decide how hot, cold, wet, or windy it might be!

Date:

Astronomy

Mar. 23, 2013 Rise Set
Actual Time 7:24 AM CDT 7:46 PM CDT
Civil Twilight 6:53 AM CDT 8:17 PM CDT
Nautical Twilight 6:17 AM CDT 8:54 PM CDT
Astronomical Twilight 5:39 AM CDT 9:32 PM CDT
Moon 4:00 PM CDT (3/23) 5:16 AM CDT (3/23)
Length of Visible Light 13h 23m
Length of Day
12h 21m
Waxing Gibbous, 85% of the Moon is Illuminated
Mar 23
Waxing Gibbous
Mar 27
Full
Apr 2
Last Quarter
Apr 10
New
Apr 18
First Quarter

Hourly Weather History & Observations

Time (CDT) Temp. Windchill Dew Point Humidity Pressure Visibility Wind Dir Wind Speed Gust Speed Precip Events Conditions
12:53 AM 7.0 °F -4.5 °F 3.0 °F 84% 30.19 in 10.0 mi NW 6.9 mph - N/A   Clear
1:53 AM 8.1 °F -2.0 °F 3.9 °F 83% 30.18 in 10.0 mi WNW 5.8 mph - N/A   Clear
2:53 AM 8.1 °F -5.3 °F 3.0 °F 80% 30.19 in 10.0 mi West 9.2 mph - N/A   Clear
3:53 AM 5.0 °F -6.9 °F 1.0 °F 84% 30.19 in 10.0 mi NNW 6.9 mph - N/A   Clear
4:53 AM 6.1 °F -2.8 °F 1.9 °F 83% 30.19 in 10.0 mi WNW 4.6 mph - N/A   Clear
5:53 AM 7.0 °F -1.7 °F 3.0 °F 84% 30.20 in 10.0 mi West 4.6 mph - N/A   Clear
6:53 AM 9.0 °F 2.4 °F 5.0 °F 84% 30.21 in 10.0 mi WNW 3.5 mph - N/A   Scattered Clouds
7:53 AM 10.0 °F 3.6 °F 6.1 °F 84% 30.21 in 10.0 mi WNW 3.5 mph - N/A   Mostly Cloudy
8:53 AM 12.0 °F 4.1 °F 7.0 °F 80% 30.22 in 10.0 mi West 4.6 mph - N/A   Mostly Cloudy
9:53 AM 16.0 °F 10.4 °F 9.0 °F 74% 30.23 in 10.0 mi West 3.5 mph - N/A   Overcast
10:53 AM 19.0 °F 11.1 °F 10.9 °F 71% 30.23 in 10.0 mi NW 5.8 mph - N/A   Scattered Clouds
11:53 AM 19.9 °F 10.1 °F 12.9 °F 74% 30.23 in 10.0 mi NW 8.1 mph - N/A   Overcast
12:53 PM 21.9 °F 13.4 °F 14.0 °F 72% 30.22 in 10.0 mi NNW 6.9 mph - N/A   Overcast
1:53 PM 24.1 °F 17.0 °F 16.0 °F 71% 30.22 in 10.0 mi North 5.8 mph - N/A   Partly Cloudy
2:53 PM 25.0 °F 17.1 °F 16.0 °F 69% 30.20 in 10.0 mi North 6.9 mph - N/A   Overcast
3:53 PM 25.0 °F 17.1 °F 17.1 °F 72% 30.19 in 10.0 mi NNW 6.9 mph - N/A   Partly Cloudy
4:53 PM 26.1 °F 18.4 °F 17.1 °F 69% 30.20 in 10.0 mi North 6.9 mph - N/A   Partly Cloudy
5:53 PM 25.0 °F 18.1 °F 18.0 °F 75% 30.21 in 10.0 mi NNW 5.8 mph - N/A   Overcast
6:53 PM 24.1 °F 15.2 °F 18.0 °F 77% 30.22 in 10.0 mi North 8.1 mph - N/A   Overcast
7:53 PM 21.0 °F 13.4 °F 17.1 °F 85% 30.23 in 10.0 mi NNW 5.8 mph - N/A   Overcast
8:53 PM 21.0 °F 11.4 °F 16.0 °F 81% 30.23 in 10.0 mi NW 8.1 mph - N/A   Overcast
9:53 PM 19.9 °F 10.1 °F 16.0 °F 85% 30.24 in 10.0 mi NNW 8.1 mph - N/A   Overcast
10:53 PM 19.0 °F 11.1 °F 15.1 °F 85% 30.23 in 10.0 mi NNW 5.8 mph - N/A   Overcast
11:53 PM 19.0 °F 10.0 °F 15.1 °F 85% 30.22 in 10.0 mi NNW 6.9 mph - N/A   Overcast